Time,TemperatureF,DewpointF,PressureIn,WindDirection,WindDirectionDegrees,WindSpeedMPH,WindSpeedGustMPH,Humidity,HourlyPrecipIn,Conditions,Clouds,dailyrainin,SoftwareType,DateUTC
2013-04-02 00:08:00,48.4,33.4,29.84,NW,315,2.2,-999.0,56,-99.99,,,0.00,Acu-Link.com,2013-04-02 04:08:00,
2013-04-02 00:23:00,48.0,33.1,29.85,NW,315,2.2,-999.0,56,-99.99,,,0.00,Acu-Link.com,2013-04-02 04:23:00,
2013-04-02 00:39:00,47.3,32.8,29.85,WSW,247,2.2,-999.0,57,-99.99,,,0.00,Acu-Link.com,2013-04-02 04:39:00,
2013-04-02 00:54:00,46.9,32.5,29.85,WSW,247,2.2,-999.0,57,-99.99,,,0.00,Acu-Link.com,2013-04-02 04:54:00,
2013-04-02 01:09:00,46.0,32.5,29.86,North,0,0.0,-999.0,59,-99.99,,,0.00,Acu-Link.com,2013-04-02 05:09:00,
2013-04-02 01:25:00,45.7,32.2,29.86,WSW,247,5.8,-999.0,59,-99.99,,,0.00,Acu-Link.com,2013-04-02 05:25:00,
2013-04-02 01:40:00,45.7,30.9,29.87,North,0,4.2,-999.0,56,-99.99,,,0.00,Acu-Link.com,2013-04-02 05:40:00,
2013-04-02 01:55:00,45.3,29.6,29.88,West,270,1.1,-999.0,54,-99.99,,,0.00,Acu-Link.com,2013-04-02 05:55:00,
2013-04-02 02:11:00,44.8,29.2,29.88,West,270,1.7,-999.0,54,-99.99,,,0.00,Acu-Link.com,2013-04-02 06:11:00,
2013-04-02 02:41:00,43.2,27.7,29.88,NW,315,2.2,-999.0,54,-99.99,,,0.00,Acu-Link.com,2013-04-02 06:41:00,
2013-04-02 02:56:00,43.0,27.1,29.89,WNW,292,1.7,-999.0,53,-99.99,,,0.00,Acu-Link.com,2013-04-02 06:56:00,
2013-04-02 03:11:00,42.4,25.6,29.89,WNW,292,2.7,-999.0,51,-99.99,,,0.00,Acu-Link.com,2013-04-02 07:11:00,
2013-04-02 03:27:00,42.3,24.5,29.89,WSW,247,2.2,-999.0,49,-99.99,,,0.00,Acu-Link.com,2013-04-02 07:27:00,
2013-04-02 03:42:00,41.7,24.9,29.89,NNW,337,2.2,-999.0,51,-99.99,,,0.00,Acu-Link.com,2013-04-02 07:42:00,
2013-04-02 03:57:00,41.5,23.8,29.89,NNE,22,2.2,-999.0,49,-99.99,,,0.00,Acu-Link.com,2013-04-02 07:57:00,
2013-04-02 04:13:00,41.2,23.5,29.89,NNW,337,1.1,-999.0,49,-99.99,,,0.00,Acu-Link.com,2013-04-02 08:13:00,
2013-04-02 04:28:00,40.6,23.0,29.90,West,270,1.1,-999.0,49,-99.99,,,0.00,Acu-Link.com,2013-04-02 08:28:00,
2013-04-02 04:43:00,39.9,22.3,29.90,NNW,337,1.7,-999.0,49,-99.99,,,0.00,Acu-Link.com,2013-04-02 08:43:00,
2013-04-02 04:59:00,39.4,22.8,29.91,NNW,337,2.7,-999.0,51,-99.99,,,0.00,Acu-Link.com,2013-04-02 08:59:00,
2013-04-02 05:14:00,38.7,22.1,29.92,NNW,337,1.7,-999.0,51,-99.99,,,0.00,Acu-Link.com,2013-04-02 09:14:00,
2013-04-02 05:29:00,37.6,22.0,29.92,West,270,0.0,-999.0,53,-99.99,,,0.00,Acu-Link.com,2013-04-02 09:29:00,
2013-04-02 05:44:00,36.7,22.1,29.93,WNW,292,1.1,-999.0,55,-99.99,,,0.00,Acu-Link.com,2013-04-02 09:44:00,
2013-04-02 05:59:00,36.0,21.8,29.95,NW,315,1.1,-999.0,56,-99.99,,,0.00,Acu-Link.com,2013-04-02 09:59:00,
2013-04-02 06:14:00,35.8,22.1,29.96,West,270,0.0,-999.0,57,-99.99,,,0.00,Acu-Link.com,2013-04-02 10:14:00,
2013-04-02 06:29:00,36.0,21.0,29.96,North,0,2.2,-999.0,54,-99.99,,,0.00,Acu-Link.com,2013-04-02 10:29:00,
2013-04-02 06:44:00,36.1,21.9,29.96,WNW,292,1.7,-999.0,56,-99.99,,,0.00,Acu-Link.com,2013-04-02 10:44:00,
2013-04-02 07:00:00,35.8,23.3,29.97,WNW,292,1.1,-999.0,60,-99.99,,,0.00,Acu-Link.com,2013-04-02 11:00:00,
2013-04-02 07:15:00,34.3,24.1,29.96,ESE,112,0.0,-999.0,66,-99.99,,,0.00,Acu-Link.com,2013-04-02 11:15:00,
2013-04-02 07:30:00,33.8,24.4,29.98,SSE,157,0.0,-999.0,68,-99.99,,,0.00,Acu-Link.com,2013-04-02 11:30:00,
2013-04-02 08:17:00,36.0,23.5,30.00,NNE,22,1.1,-999.0,60,-99.99,,,0.00,Acu-Link.com,2013-04-02 12:17:00,
2013-04-02 08:32:00,37.9,22.8,30.00,NE,45,3.7,-999.0,54,-99.99,,,0.00,Acu-Link.com,2013-04-02 12:32:00,
2013-04-02 08:47:00,39.6,22.5,30.00,NNE,22,1.7,-999.0,50,-99.99,,,0.00,Acu-Link.com,2013-04-02 12:47:00,
2013-04-02 09:02:00,40.6,22.5,30.00,NNE,22,3.7,-999.0,48,-99.99,,,0.00,Acu-Link.com,2013-04-02 13:02:00,
2013-04-02 09:17:00,41.7,23.0,30.01,North,0,3.7,-999.0,47,-99.99,,,0.00,Acu-Link.com,2013-04-02 13:17:00,
2013-04-02 09:32:00,43.3,23.4,30.02,NNE,22,2.7,-999.0,45,-99.99,,,0.00,Acu-Link.com,2013-04-02 13:32:00,
2013-04-02 09:48:00,44.8,21.4,30.01,West,270,2.7,-999.0,39,-99.99,,,0.00,Acu-Link.com,2013-04-02 13:48:00,
2013-04-02 10:03:00,46.0,22.4,30.02,NNE,22,3.7,-999.0,39,-99.99,,,0.00,Acu-Link.com,2013-04-02 14:03:00,
2013-04-02 10:18:00,46.9,22.6,30.02,NE,45,4.2,-999.0,38,-99.99,,,0.00,Acu-Link.com,2013-04-02 14:18:00,
2013-04-02 10:34:00,46.0,22.4,30.01,East,90,2.7,-999.0,39,-99.99,,,0.00,Acu-Link.com,2013-04-02 14:34:00,
2013-04-02 10:49:00,47.5,22.5,30.01,NNE,22,2.7,-999.0,37,-99.99,,,0.00,Acu-Link.com,2013-04-02 14:49:00,
2013-04-02 11:04:00,49.1,22.6,30.02,SE,135,2.2,-999.0,35,-99.99,,,0.00,Acu-Link.com,2013-04-02 15:04:00,
2013-04-02 11:19:00,48.0,23.6,30.01,WSW,247,2.7,-999.0,38,-99.99,,,0.00,Acu-Link.com,2013-04-02 15:19:00,
2013-04-02 11:35:00,52.0,22.3,30.01,South,180,2.2,-999.0,31,-99.99,,,0.00,Acu-Link.com,2013-04-02 15:35:00,
2013-04-02 12:05:00,50.7,22.7,30.01,NE,45,4.7,-999.0,33,-99.99,,,0.00,Acu-Link.com,2013-04-02 16:05:00,
2013-04-02 12:20:00,51.6,21.2,30.00,East,90,1.7,-999.0,30,-99.99,,,0.00,Acu-Link.com,2013-04-02 16:20:00,
2013-04-02 12:36:00,57.9,20.3,30.00,NE,45,3.2,-999.0,23,-99.99,,,0.00,Acu-Link.com,2013-04-02 16:36:00,
2013-04-02 12:51:00,59.2,18.2,29.99,NNW,337,2.2,-999.0,20,-99.99,,,0.00,Acu-Link.com,2013-04-02 16:51:00,
2013-04-02 13:36:00,59.7,14.8,29.98,WNW,292,2.7,-999.0,17,-99.99,,,0.00,Acu-Link.com,2013-04-02 17:36:00,
2013-04-02 13:52:00,61.3,11.7,29.97,NW,315,4.7,-999.0,14,-99.99,,,0.00,Acu-Link.com,2013-04-02 17:52:00,
2013-04-02 14:07:00,58.3,7.7,29.97,NNE,22,5.3,-999.0,13,-99.99,,,0.00,Acu-Link.com,2013-04-02 18:07:00,
2013-04-02 14:38:00,57.4,14.3,29.97,South,180,3.2,-999.0,18,-99.99,,,0.00,Acu-Link.com,2013-04-02 18:38:00,
2013-04-02 14:53:00,59.0,11.4,29.97,SW,225,4.2,-999.0,15,-99.99,,,0.00,Acu-Link.com,2013-04-02 18:53:00,
2013-04-02 15:08:00,61.2,13.2,29.95,North,0,5.3,-999.0,15,-99.99,,,0.00,Acu-Link.com,2013-04-02 19:08:00,
2013-04-02 15:23:00,61.3,10.1,29.95,SE,135,1.7,-999.0,13,-99.99,,,0.00,Acu-Link.com,2013-04-02 19:23:00,
2013-04-02 15:39:00,61.0,9.8,29.94,NNE,22,3.7,-999.0,13,-99.99,,,0.00,Acu-Link.com,2013-04-02 19:39:00,
2013-04-02 16:09:00,63.1,9.7,29.93,WNW,292,4.7,-999.0,12,-99.99,,,0.00,Acu-Link.com,2013-04-02 20:09:00,
2013-04-02 16:24:00,63.7,8.2,29.92,SSW,202,2.7,-999.0,11,-99.99,,,0.00,Acu-Link.com,2013-04-02 20:24:00,
2013-04-02 16:39:00,62.8,17.4,29.92,SSW,202,2.2,-999.0,17,-99.99,,,0.00,Acu-Link.com,2013-04-02 20:39:00,
2013-04-02 16:54:00,62.8,9.5,29.92,WSW,247,4.2,-999.0,12,-99.99,,,0.00,Acu-Link.com,2013-04-02 20:54:00,
2013-04-02 17:09:00,56.5,17.1,29.92,WNW,292,3.7,-999.0,21,-99.99,,,0.00,Acu-Link.com,2013-04-02 21:09:00,
2013-04-02 17:25:00,56.3,14.6,29.92,SE,135,2.7,-999.0,19,-99.99,,,0.00,Acu-Link.com,2013-04-02 21:25:00,
2013-04-02 17:40:00,59.5,11.8,29.92,NNE,22,4.7,-999.0,15,-99.99,,,0.00,Acu-Link.com,2013-04-02 21:40:00,
2013-04-02 17:55:00,57.4,14.3,29.93,North,0,0.0,-999.0,18,-99.99,,,0.00,Acu-Link.com,2013-04-02 21:55:00,
2013-04-02 18:10:00,58.8,14.1,29.93,WNW,292,1.7,-999.0,17,-99.99,,,0.00,Acu-Link.com,2013-04-02 22:10:00,
2013-04-02 18:26:00,57.4,16.7,29.92,West,270,2.2,-999.0,20,-99.99,,,0.00,Acu-Link.com,2013-04-02 22:26:00,
2013-04-02 18:57:00,53.8,19.7,29.92,SW,225,3.2,-999.0,26,-99.99,,,0.00,Acu-Link.com,2013-04-02 22:57:00,
2013-04-02 19:12:00,53.2,19.2,29.92,SW,225,1.7,-999.0,26,-99.99,,,0.00,Acu-Link.com,2013-04-02 23:12:00,
2013-04-02 19:27:00,52.9,19.8,29.92,South,180,2.7,-999.0,27,-99.99,,,0.00,Acu-Link.com,2013-04-02 23:27:00,
2013-04-02 19:42:00,52.7,20.5,29.91,SE,135,2.2,-999.0,28,-99.99,,,0.00,Acu-Link.com,2013-04-02 23:42:00,
2013-04-02 19:57:00,52.2,23.2,29.93,SSW,202,1.7,-999.0,32,-99.99,,,0.00,Acu-Link.com,2013-04-02 23:57:00,
2013-04-02 20:13:00,51.4,25.4,29.93,South,180,2.7,-999.0,36,-99.99,,,0.00,Acu-Link.com,2013-04-03 00:13:00,
2013-04-02 20:28:00,51.3,25.9,29.94,SW,225,0.0,-999.0,37,-99.99,,,0.00,Acu-Link.com,2013-04-03 00:28:00,
2013-04-02 20:43:00,51.1,25.7,29.93,West,270,0.0,-999.0,37,-99.99,,,0.00,Acu-Link.com,2013-04-03 00:43:00,
2013-04-02 21:14:00,50.5,26.5,29.94,West,270,1.7,-999.0,39,-99.99,,,0.00,Acu-Link.com,2013-04-03 01:14:00,
2013-04-02 21:29:00,50.4,28.8,29.95,SSW,202,0.0,-999.0,43,-99.99,,,0.00,Acu-Link.com,2013-04-03 01:29:00,
2013-04-02 21:45:00,50.2,24.3,29.95,WNW,292,1.1,-999.0,36,-99.99,,,0.00,Acu-Link.com,2013-04-03 01:45:00,
2013-04-02 22:00:00,50.2,17.5,29.96,ESE,112,1.7,-999.0,27,-99.99,,,0.00,Acu-Link.com,2013-04-03 02:00:00,
2013-04-02 22:15:00,49.8,18.8,29.96,NNW,337,2.2,-999.0,29,-99.99,,,0.00,Acu-Link.com,2013-04-03 02:15:00,
2013-04-02 22:30:00,49.5,17.8,29.97,NW,315,1.1,-999.0,28,-99.99,,,0.00,Acu-Link.com,2013-04-03 02:30:00,
2013-04-02 23:32:00,47.8,16.3,29.98,NW,315,2.2,-999.0,28,-99.99,,,0.00,Acu-Link.com,2013-04-03 03:32:00,